Tracking 32139 objects as of 16-Nov-2025
HD Live streaming from Space Station
objects crossing your sky now

STARLINK-30294

Track STARLINK-30294 now!
10-day predictions
STARLINK-30294 is classified as:


NORAD ID: 57651
Int'l Code: 2023-122V
Perigee: 565.6 km
Apogee: 567.0 km
Inclination: 43.0 °
Period: 95.8 minutes
Semi major axis: 6937 km
RCS: Unknown
Launch date: August 17, 2023
Source: United States (US)
Launch site: AIR FORCE EASTERN TEST RANGE (AFETR)
Your satellite tracking list
Your tracking list is empty




NASA's NSSDC Master Catalog

Two Line Element Set (TLE):
1 57651U 23122V   25319.46733818  .00005440  00000-0  41766-3 0  9994
2 57651  43.0044 342.2400 0001040 288.2069  71.8660 15.02518412125157
Source of the keplerian elements: AFSPC